[Iaude] MPEC F58: 2024 FT1 [a=1.20,e=0.60,i=40.3,H=21.2]

mpec at cfa.harvard.edu mpec at cfa.harvard.edu
Thu Mar 21 05:17:58 EDT 2024


M.P.E.C. 2024-F58                                Issued 2024 March 21, 09:16 UT

     The Minor Planet Electronic Circulars contain information on unusual
         minor planets, routine data on comets and natural satellites,
         and occasional editorial announcements.  They are published
    on behalf of Division F of the International Astronomical Union by the
          Minor Planet Center, Smithsonian Astrophysical Observatory,
                          Cambridge, MA 02138, U.S.A.
			  
             Prepared using the Tamkin Foundation Computer Network

                              MPC at CFA.HARVARD.EDU
            URL https://www.minorplanetcenter.net/    ISSN 1523-6714

                                    2024 FT1                                    


Observations:
     K24F01T* C2024 03 18.40515311 27 48.556-08 40 01.54         21.68wXEF058F51
     K24F01T  C2024 03 18.42848611 27 45.077-08 38 41.36         21.67wXEF058F51
     K24F01T  C2024 03 18.44013711 27 43.332-08 38 01.74         21.47wXEF058F51
     K24F01T |C2024 03 19.14509011 26 03.080-07 57 42.20         21.4 GVEF058807
     K24F01T |C2024 03 19.15609011 26 01.460-07 57 04.60         21.2 GVEF058807
     K24F01T |C2024 03 19.16709011 25 59.890-07 56 26.70         21.2 GVEF058807
     K24F01T KC2024 03 19.22535 11 25 51.97 -07 53 22.9          21.7 RVEF058291
     K24F01T KC2024 03 19.23432 11 25 50.63 -07 52 53.2          21.7 RVEF058291
     K24F01T 1C2024 03 19.34407211 25 35.323-07 46 38.15         21.49GVEF058T12
     K24F01T 1C2024 03 19.34697211 25 34.901-07 46 28.30         21.60GVEF058T12
     K24F01T DC2024 03 21.33249 11 21 03.24 -05 56 01.0          21.8 GVEF058695
     K24F01T DC2024 03 21.34843 11 21 01.06 -05 55 08.6          21.7 GVEF058695

Observer details:
291 LPL/Spacewatch II.  Observer M. T. Read.  1.8-m f/2.7 reflector + CCD.
695 Kitt Peak.  Observer J. V. Scotti.  2.3-m f/9 reflector + CCD.
807 Cerro Tololo Observatory, La Serena.  Observers T. Linder, R. Holmes.
    0.61-m f/6.8 Ritchey-Chretien + CCD.
F51 Pan-STARRS 1, Haleakala.  Observers J. Herman, T. Lowe, P. Minguez, A.
    Schultz, I. Smith.  Measurers K. Chambers, T. de Boer, J. Fairlamb, H.
    Gao, M. Huber, C.-C. Lin, E. Magnier, Y. Ramanjooloo, R. Wainscoat, R.
    Weryk.  1.8-m Ritchey-Chretien + CCD.
T12 University of Hawaii 88-inch telescope, Maunakea.  Observer J. Fairlamb.
    Measurers R. Weryk, J. Fairlamb, Y. Ramanjooloo, R. Wainscoat.  2.24-m
    f/10.1 reflector + CCD.

Orbital elements:
2024 FT1                                                 Earth MOID = 0.4153 AU
Epoch 2024 Mar. 31.0 TT = JDT 2460400.5                 MPC                     
M 104.56348              (2000.0)            P               Q                  
n   0.74565769     Peri.  203.67681     +0.90300605     -0.42886591             
a   1.2044156      Node   182.26540     +0.41727464     +0.86131392             
e   0.5951761      Incl.   40.31679     -0.10228363     -0.27241948             
P   1.32           H   21.27          G   0.15           U   9                  
Residuals in seconds of arc
240318 F51  0.1+  0.1+    240319 807  0.7-  0.2-    240319 T12  0.3+  0.0
240318 F51  0.3+  0.3+    240319 807  0.1-  0.3+    240319 T12  0.3+  0.0
240318 F51  0.2+  0.1-    240319 291  0.2+  0.5+    240321 695  0.1+  1.1+
240319 807  0.6-  0.5-    240319 291  0.2-  0.2-    240321 695  0.2+  1.1+

Ephemeris:
2024 FT1                 a,e,i = 1.20, 0.60, 40                  q = 0.4876
Date    TT    R. A. (2000) Decl.     Delta      r    Elong.  Phase     V
2024 02 20    12 44 19.4 -33 00 58   0.6156  1.4175   122.5    36.0    22.4
...
2024 03 06    12 01 27.0 -20 48 30   0.5804  1.5237   150.3    18.8    22.0
...
2024 03 14    11 38 57.4 -12 57 23   0.5940  1.5746   164.5     9.7    21.8
...
2024 03 20    11 24 03.7 -07 09 42   0.6217  1.6101   168.7     6.9    21.8
2024 03 21    11 21 47.9 -06 14 11   0.6278  1.6159   168.3     7.2    21.8
2024 03 22    11 19 36.0 -05 19 37   0.6342  1.6215   167.6     7.6    21.9
...
2024 03 28    11 07 53.0 -00 15 23   0.6810  1.6543   159.9    11.9    22.3
...
2024 04 05    10 56 14.0 +05 19 24   0.7619  1.6948   147.9    18.3    22.8
...
2024 04 20    10 45 35.0 +12 17 04   0.9547  1.7611   128.0    26.7    23.6

A. U. Tomatic                (C) Copyright 2024 MPC           M.P.E.C. 2024-F58





More information about the Iaude mailing list